Location: B�aulencourt
(50.0796°N, 2.8795°E)
Time: 15:17:37
(UTC+00:00)

Daily predictions for brighter satellites

Satellite Brightness Start Highest point End
(mag) Time Altitude Azimuth Time Altitude Azimuth Time Altitude Azimuth
Cosmos 1408 2.6 16:36:28 10° N 16:40:06 90° WNW 16:43:41 10° S
AQUARIUS 4.4 16:40:20 10° SE 16:44:40 50° ENE 16:49:02 10° N
Cosmos 1867 4.2 16:41:16 10° S 16:46:18 39° ESE 16:51:22 10° NE
ASTEX 1 3.4 16:41:26 10° N 16:46:28 70° E 16:51:27 10° S
CENTAUR R/B 3.9 16:41:47 10° W 16:47:47 33° NNW 16:54:38 10° NE
Cosmos 1743 Rocket 3.6 16:43:56 10° N 16:48:14 57° ENE 16:52:32 10° SSE
Cosmos 1805 Rocket 4.5 16:44:53 10° N 16:48:36 26° ENE 16:52:17 10° SE
Cosmos 1656 Rocket 4.0 16:46:55 10° SW 16:52:25 69° WNW 16:57:53 10° NNE
Cosmos 1340 Rocket 2.9 16:51:08 10° SSW 16:55:10 86° W 16:59:16 10° NNE
Okean O Rocket 3.1 16:52:14 10° S 16:56:26 42° W 17:00:37 10° NNW
ALOS 3.9 16:53:55 10° SSW 16:58:17 39° W 17:02:41 10° NNW
Cosmos 1825 2.4 16:54:43 10° NNW 16:58:31 76° W 17:02:17 10° S
GEOS 3 Rocket 3.9 16:53:54 10° NE 16:59:00 52° SE 17:04:08 10° SSW
NOAA 12 4.3 16:54:22 10° SE 16:59:31 51° ENE 17:04:41 10° N
CZ-4 R/B 2.5 16:57:35 10° ESE 17:00:55 24° ENE 17:04:14 10° N
Cosmos 2123 Rocket 4.0 16:54:45 10° S 17:00:58 83° E 17:07:11 10° N
ATLAS 3B R/B 3.9 16:57:58 10° WNW 17:03:41 29° NNW 17:09:26 10° NE
Cosmos 1869 4.3 17:01:29 10° SE 17:04:43 25° E 17:07:58 10° NE
Cosmos 1725 Rocket 4.3 17:00:03 10° NNW 17:06:23 77° W 17:12:41 10° S
SMAP 3.1 17:02:25 10° SSE 17:07:05 87° ENE 17:11:47 10° NNW
Cosmos 2219 3.1 17:02:25 10° NNW 17:08:04 72° ENE 17:13:40 10° SE
Cosmos 1238 Rocket 3.0 17:07:15 10° N 17:12:09 75° E 17:16:05 10° SSE
Cosmos 1500 Rocket 3.6 17:09:12 10° N 17:13:38 88° WSW 17:17:59 10° S
Cosmos 2369 Rocket 3.9 17:10:19 10° WSW 17:15:07 28° NW 17:19:56 10° NNE
Cosmos 1939 Rocket 4.4 17:17:43 16° E 17:18:43 18° ENE 17:21:31 10° NNE
Cosmos 1633 Rocket 4.0 17:15:53 10° NNE 17:19:33 25° ENE 17:23:12 10° SE
Cosmos 1633 3.5 17:18:33 10° NNE 17:21:43 27° ENE 17:24:52 10° SE
TELKOM 3 3.6 17:23:10 10° W 17:25:16 44° SSW 17:26:21 21° SE
COSMO-SKYMED 1 3.3 17:21:34 10° NNE 17:25:29 32° E 17:29:24 10° SSE
Elektron 3 4.4 17:23:56 10° WSW 17:27:07 50° NW 17:29:06 17° NE
COBE Rocket 3.8 17:23:14 10° NNE 17:28:05 63° E 17:32:46 10° S
CSL-04 Rocket 4.0 17:23:12 10° SE 17:28:12 41° ENE 17:33:10 10° N
FengYun 1-2 T 4.3 17:23:18 10° SE 17:28:42 57° ENE 17:34:05 10° N
Cosmos 2344 3.7 17:21:35 10° SW 17:29:06 83° NW 17:37:41 10° NE
Cosmos 1455 4.1 17:25:51 10° SW 17:29:13 30° WNW 17:32:36 10° N
Cosmos 1666 Rocket 4.1 17:25:15 10° N 17:29:19 35° ENE 17:33:19 10° SE
Cosmos 1607 3.9 17:23:32 10° NW 17:29:46 83° NE 17:36:03 10° SE
Cosmos 2227 Rocket 2.1 17:24:52 10° NNW 17:30:33 68° ENE 17:36:11 10° SE
Cosmos 2297 Rocket 2.1 17:25:21 10° NNW 17:31:02 73° ENE 17:36:41 10° SE
Sich 1 3.1 17:31:31 10° N 17:35:46 53° ENE 17:40:02 10° SSE
Cosmos 2084 4.0 17:34:46 10° NW 17:39:02 59° SW 17:43:10 10° SSE
Meteor 2-2 Rocket 4.2 17:33:42 10° S 17:39:32 73° E 17:45:18 10° NNE
YAOGAN 6 2.5 17:36:46 10° SSE 17:40:12 54° ENE 17:43:38 10° N
USA 215 3.3 17:37:19 18° E 17:42:23 65° NNE 17:48:52 10° WNW
NOSS 7 (D) 3.8 17:40:12 10° SW 17:43:07 82° NW 17:44:02 38° NE
H-2A R/B 4.1 17:40:41 10° S 17:44:22 43° W 17:48:03 10° NNW
Envisat 3.0 17:41:32 10° SSE 17:46:37 86° WSW 17:51:45 10° NNW
USA 229 DEB 3.8 17:43:36 10° SSW 17:49:58 54° ESE 17:54:26 21° NE
USA 229 3.8 17:43:45 10° SSW 17:50:05 54° ESE 17:54:29 21° NE
Cosmos 1513 Rocket 4.5 17:43:55 10° N 17:50:21 66° ENE 17:56:41 10° SSE
Cosmos 1862 3.5 17:47:03 10° N 17:50:55 47° ENE 17:54:46 10° SSE
Cosmos 2034 Rocket 4.2 17:45:13 10° N 17:51:23 51° ENE 17:57:33 10° SSE
Cosmos 1943 Rocket 4.4 17:50:43 10° WNW 17:54:24 17° NNW 17:58:06 10° N
NOSS 3-1 (A) 4.0 17:50:26 10° S 17:55:23 34° ESE 17:57:11 28° E
Genesis I 3.2 17:52:28 10° SW 17:56:30 89° SE 17:58:14 33° NE
NOSS 3-1 (C) 3.5 17:51:17 10° SSW 17:56:39 52° ESE 17:59:56 26° ENE
Cosmos 2082 3.6 17:51:14 10° NNW 17:56:52 69° ENE 18:02:28 10° SE
Cosmos 2263 Rocket 3.4 17:52:41 10° N 17:56:58 22° NE 17:57:19 22° NE
YAOGAN 1 2.5 17:52:52 10° SSE 17:57:09 64° ENE 18:01:27 10° N
Cosmos 1470 Rocket 4.2 17:55:54 10° N 17:59:35 34° ENE 17:59:35 34° ENE
Okean-O 3.8 17:56:45 10° S 18:01:01 46° W 18:05:19 10° NNW
Cosmos 2221 3.8 17:59:42 10° SW 18:03:46 40° WNW 18:07:55 10° N
SeaSat 1 3.9 18:02:36 10° S 18:07:12 39° WSW 18:11:50 10° NW
Meteor 2-11 Rocket 4.4 18:02:33 10° N 18:08:38 63° ENE 18:14:42 10° SSE
Cosmos 1697 Rocket 3.1 18:06:18 10° S 18:11:30 39° ESE 18:12:05 38° E
USA 116 4.1 18:09:07 26° NNE 18:11:31 61° ESE 18:16:21 10° S
Cosmos 1356 Rocket 3.4 18:07:50 10° SSW 18:11:59 85° WNW 18:15:46 13° N
Geosat 4.4 18:08:09 13° NNE 18:12:37 62° NW 18:17:34 10° SW
SKYMED 2 3.5 18:09:25 10° NNE 18:13:47 87° WNW 18:18:09 10° SSW
Tsikada Rocket 4.3 18:08:17 10° SSE 18:14:11 42° E 18:20:10 10° NNE
Cosmos 1634 Rocket 4.5 18:08:53 10° N 18:14:33 35° ENE 18:14:34 35° ENE
CZ-3B R/B 3.7 18:13:32 10° WNW 18:15:42 38° NNW 18:15:42 38° NNW
Lacrosse 4 Rocket 2.7 18:13:24 10° S 18:15:35 26° SSE 18:15:35 26° SSE
ATLAS 5 CENTAUR R/B 2.9 18:11:43 10° NW 18:17:20 59° SW 18:23:46 10° SSE
Cosmos 1680 Rocket 4.0 18:16:10 10° S 18:20:18 39° SE 18:20:18 39° SE
H-2A R/B 3.6 18:31:12 22° NNE 18:31:12 22° NNE 18:33:28 10° N
Ariane Rocket 2.9 18:28:23 50° ESE 18:29:30 64° ENE 18:34:33 10° N
Cosmos 1867 4.3 18:24:33 10° WSW 18:29:51 49° NW 18:32:48 25° NNE
CZ-4 R/B 2.7 18:31:47 10° S 18:35:45 41° W 18:39:41 10° NNW
Cosmos 724 4.1 18:30:56 10° NW 18:36:51 80° NE 18:38:19 52° SE
CENTAUR R/B 4.0 18:34:20 10° NW 18:40:40 31° N 18:42:52 27° NE
NOAA 11 4.2 18:36:13 10° SSE 18:41:39 80° WSW 18:47:07 10° NNW
MOS 1 4.3 18:43:14 59° ENE 18:43:14 59° ENE 18:48:37 10° N
CZ-2D R/B 3.9 18:44:41 51° NW 18:44:41 51° NW 18:47:47 10° NNW
Cosmos 923 Rocket 3.8 18:39:35 10° SSW 18:44:48 82° ESE 18:45:14 74° NE
Cosmos 2056 Rocket 3.6 18:43:42 10° NNW 18:48:06 61° NNE 18:48:06 61° NNE
Cosmos 1624 Rocket 3.9 18:43:39 10° NNW 18:48:42 71° NE 18:48:42 71° NE
Cosmos 1656 3.8 18:45:01 10° SW 18:50:34 71° WNW 18:52:28 41° NNE
Cosmos 1939 Rocket 3.5 18:53:38 56° WNW 18:53:38 56° WNW 18:57:22 10° NNW
ATLAS 3B R/B 3.9 18:50:57 10° NW 18:56:27 26° N 18:57:16 26° NNE
Cosmos 1633 Rocket 4.4 18:53:22 10° NNW 18:57:29 39° W 19:01:35 10° SSW
COSMO-SKYMED 1 4.3 18:57:46 10° N 19:01:38 32° WNW 19:05:28 10° SW
Cosmos 2227 Rocket 4.4 19:09:43 10° NW 19:14:05 23° WSW 19:18:27 10° SSW
Cosmos 1980 Rocket 3.8 19:08:55 10° SSW 19:10:50 22° S 19:10:50 22° S
Cosmos 2297 Rocket 4.5 19:10:20 10° NW 19:14:31 22° W 19:18:40 10° SSW
Gblst 52 Del rocket 4.4 19:08:31 10° W 19:15:03 77° NNW 19:15:03 77° NNW
USA 215 3.5 19:24:41 57° S 19:25:28 60° SW 19:31:59 10° WNW
Cosmos 2369 4.3 19:25:28 10° SW 19:30:30 55° W 19:30:30 55° W
USA 229 DEB 4.3 19:34:36 10° WSW 19:41:03 49° NW 19:41:54 47° NNW
USA 229 4.3 19:34:44 10° WSW 19:41:10 49° NNW 19:41:57 47° NNW
Cosmos 2263 Rocket 3.5 19:36:06 10° NNW 19:39:01 32° NNW 19:39:01 32° NNW
NOSS 3-1 (A) 4.1 19:40:12 10° WSW 19:44:40 50° W 19:44:40 50° W
NOSS 3-1 (C) 4.3 19:42:01 10° WSW 19:47:21 46° NW 19:47:21 46° NW
Cosmos 1697 Rocket 4.0 19:50:04 10° WSW 19:53:53 35° W 19:53:53 35° W
H-2A R/B 4.4 20:11:50 19° NNW 20:11:50 19° NNW 20:13:20 10° NNW
CENTAUR R/B 4.1 20:25:33 10° NW 20:30:03 37° NNW 20:30:03 37° NNW
